WMT8133 LIRF-LFMN

Flight info

Callsign WMT8133
Flight time 0h 52m
Altitude 32000
Route XENOL5AXPODOX9E/25 PODOX DCT TOBGA DCT DOBIM/N0432F300 DCT AKUTI R16 KERIT
Aircraft A21N/M-SDE1E2E3FGIJ1J4RWXY/LB1

Departure

Time 2026-05-01 12:27
Airport Rome–Fiumicino Leonardo da Vinci International Airport (LIRF)

Arrival

Time 2026-05-01 13:19
Airport Nice-Côte d'Azur Airport (LFMN)
Time Latitude Longitude Altitude Speed Heading
2026-05-01 11:57 41.79378 12.24551 13 ft 0 kts 346°
2026-05-01 12:11 41.79368 12.24554 13 ft 2 kts 346°
2026-05-01 12:11 41.79354 12.24559 13 ft 2 kts 346°
2026-05-01 12:11 41.79339 12.24564 13 ft 2 kts 346°
2026-05-01 12:12 41.79330 12.24567 13 ft 2 kts 341°
2026-05-01 12:12 41.79317 12.24578 13 ft 2 kts 303°
2026-05-01 12:12 41.79312 12.24597 13 ft 2 kts 274°
2026-05-01 12:12 41.79312 12.24608 13 ft 1 kts 257°
2026-05-01 12:13 41.79314 12.24615 13 ft 0 kts 258°
2026-05-01 12:15 41.79313 12.24608 13 ft 2 kts 258°
2026-05-01 12:15 41.79306 12.24568 13 ft 6 kts 258°
2026-05-01 12:16 41.79295 12.24493 13 ft 9 kts 261°
2026-05-01 12:16 41.79317 12.24401 13 ft 11 kts 303°
2026-05-01 12:16 41.79344 12.24307 13 ft 11 kts 259°
2026-05-01 12:16 41.79313 12.24193 10 ft 14 kts 249°
2026-05-01 12:17 41.79276 12.24062 10 ft 15 kts 249°
2026-05-01 12:17 41.79253 12.23968 10 ft 8 kts 263°
2026-05-01 12:17 41.79289 12.23914 10 ft 8 kts 340°
2026-05-01 12:17 41.79355 12.23886 10 ft 11 kts 342°
2026-05-01 12:18 41.79438 12.23852 10 ft 13 kts 343°
2026-05-01 12:18 41.79538 12.23809 10 ft 16 kts 342°
2026-05-01 12:18 41.79653 12.23761 10 ft 18 kts 343°
2026-05-01 12:18 41.79760 12.23717 10 ft 12 kts 342°
2026-05-01 12:19 41.79828 12.23689 10 ft 9 kts 343°
2026-05-01 12:19 41.79893 12.23694 10 ft 10 kts 47°
2026-05-01 12:19 41.79924 12.23786 10 ft 11 kts 69°
2026-05-01 12:19 41.79952 12.23887 10 ft 11 kts 70°
2026-05-01 12:20 41.79980 12.23992 10 ft 12 kts 76°
2026-05-01 12:20 41.79993 12.24105 10 ft 12 kts 71°
2026-05-01 12:20 41.80025 12.24218 10 ft 13 kts 70°
2026-05-01 12:20 41.80058 12.24340 10 ft 14 kts 69°
2026-05-01 12:21 41.80096 12.24475 10 ft 16 kts 70°
2026-05-01 12:21 41.80137 12.24626 10 ft 17 kts 70°
2026-05-01 12:21 41.80181 12.24781 10 ft 17 kts 70°
2026-05-01 12:21 41.80204 12.24942 10 ft 17 kts 90°
2026-05-01 12:22 41.80213 12.25104 10 ft 17 kts 71°
2026-05-01 12:22 41.80252 12.25244 13 ft 14 kts 69°
2026-05-01 12:22 41.80287 12.25371 14 ft 14 kts 69°
2026-05-01 12:22 41.80325 12.25507 14 ft 16 kts 69°
2026-05-01 12:23 41.80367 12.25659 14 ft 18 kts 69°
2026-05-01 12:23 41.80411 12.25822 14 ft 19 kts 70°
2026-05-01 12:23 41.80456 12.25985 17 ft 18 kts 69°
2026-05-01 12:23 41.80500 12.26144 17 ft 18 kts 70°
2026-05-01 12:24 41.80545 12.26307 14 ft 19 kts 69°
2026-05-01 12:24 41.80593 12.26479 14 ft 19 kts 70°
2026-05-01 12:24 41.80642 12.26657 11 ft 21 kts 69°
2026-05-01 12:24 41.80692 12.26840 11 ft 20 kts 69°
2026-05-01 12:25 41.80734 12.26992 11 ft 10 kts 69°
2026-05-01 12:25 41.80867 12.27012 11 ft 11 kts 339°
2026-05-01 12:25 41.80936 12.26975 12 ft 10 kts 327°
2026-05-01 12:26 41.80951 12.26903 11 ft 4 kts 251°
2026-05-01 12:26 41.80804 12.26372 14 ft 94 kts 249°
2026-05-01 12:26 41.80497 12.25265 14 ft 156 kts 249°
2026-05-01 12:27 41.80072 12.23756 274 ft 181 kts 251°
2026-05-01 12:27 41.79303 12.20618 1676 ft 178 kts 264°
2026-05-01 12:28 41.79221 12.17301 2593 ft 189 kts 272°
2026-05-01 12:28 41.79187 12.15489 2907 ft 205 kts 272°
2026-05-01 12:28 41.79097 12.11342 3556 ft 241 kts 271°
2026-05-01 12:29 41.79047 12.09005 3936 ft 259 kts 272°
2026-05-01 12:29 41.79037 12.06549 4452 ft 272 kts 272°
2026-05-01 12:29 41.79039 12.01411 5947 ft 281 kts 272°
2026-05-01 12:30 41.79026 11.96133 7475 ft 289 kts 273°
2026-05-01 12:30 41.79018 11.93439 8225 ft 294 kts 274°
2026-05-01 12:30 41.79008 11.90692 8987 ft 298 kts 274°
2026-05-01 12:31 41.78999 11.87915 9757 ft 301 kts 275°
2026-05-01 12:31 41.79088 11.85108 10472 ft 299 kts 287°
2026-05-01 12:31 41.79928 11.82631 10912 ft 298 kts 313°
2026-05-01 12:31 41.81265 11.80496 11484 ft 302 kts 317°
2026-05-01 12:32 41.82656 11.78387 12216 ft 305 kts 317°
2026-05-01 12:32 41.85380 11.74024 13673 ft 309 kts 315°
2026-05-01 12:32 41.86749 11.71732 14173 ft 318 kts 315°
2026-05-01 12:33 41.88108 11.69414 14787 ft 321 kts 315°
2026-05-01 12:33 41.89485 11.67035 15466 ft 323 kts 314°
2026-05-01 12:33 41.90848 11.64665 16106 ft 325 kts 314°
2026-05-01 12:33 41.92211 11.62280 16708 ft 327 kts 315°
2026-05-01 12:34 41.93609 11.59833 17320 ft 330 kts 315°
2026-05-01 12:34 41.94989 11.57410 17943 ft 330 kts 315°
2026-05-01 12:34 41.96375 11.54967 18522 ft 332 kts 315°
2026-05-01 12:34 41.97786 11.52480 19075 ft 334 kts 315°
2026-05-01 12:35 41.99187 11.50006 19592 ft 337 kts 315°
2026-05-01 12:35 42.00605 11.47504 20032 ft 341 kts 316°
2026-05-01 12:35 42.02056 11.44942 20548 ft 343 kts 315°
2026-05-01 12:35 42.03487 11.42408 21058 ft 344 kts 316°
2026-05-01 12:36 42.04931 11.39852 21489 ft 347 kts 316°
2026-05-01 12:36 42.06405 11.37242 21990 ft 349 kts 316°
2026-05-01 12:36 42.07864 11.34655 22413 ft 352 kts 315°
2026-05-01 12:36 42.09340 11.32031 22809 ft 355 kts 316°
2026-05-01 12:37 42.10845 11.29355 23241 ft 358 kts 315°
2026-05-01 12:37 42.12343 11.26690 23678 ft 359 kts 315°
2026-05-01 12:37 42.13851 11.24010 24113 ft 361 kts 315°
2026-05-01 12:37 42.15350 11.21339 24532 ft 363 kts 315°
2026-05-01 12:38 42.16883 11.18607 24959 ft 365 kts 315°
2026-05-01 12:38 42.18406 11.15889 25369 ft 367 kts 315°
2026-05-01 12:38 42.19941 11.13145 25790 ft 369 kts 315°
2026-05-01 12:38 42.21493 11.10371 26144 ft 372 kts 315°
2026-05-01 12:39 42.23049 11.07583 26520 ft 373 kts 315°
2026-05-01 12:39 42.24614 11.04773 26900 ft 376 kts 315°
2026-05-01 12:39 42.26173 11.01977 27265 ft 377 kts 315°
2026-05-01 12:39 42.27764 10.99122 27632 ft 379 kts 315°
2026-05-01 12:40 42.29329 10.96312 28025 ft 380 kts 314°
2026-05-01 12:40 42.30932 10.93426 28355 ft 383 kts 315°
2026-05-01 12:40 42.32531 10.90549 28686 ft 385 kts 314°
2026-05-01 12:40 42.34124 10.87677 29031 ft 387 kts 314°
2026-05-01 12:41 42.35738 10.84766 29388 ft 388 kts 314°
2026-05-01 12:41 42.37350 10.81855 29718 ft 390 kts 314°
2026-05-01 12:41 42.38985 10.78902 30032 ft 392 kts 314°
2026-05-01 12:41 42.40613 10.75957 30222 ft 394 kts 314°
2026-05-01 12:42 42.43857 10.70067 30241 ft 393 kts 314°
2026-05-01 12:42 42.47122 10.64135 30240 ft 395 kts 314°
2026-05-01 12:43 42.50413 10.58149 30240 ft 395 kts 313°
2026-05-01 12:43 42.53679 10.52194 30247 ft 396 kts 313°
2026-05-01 12:44 42.56949 10.46217 30239 ft 396 kts 313°
2026-05-01 12:45 42.63501 10.34210 30258 ft 397 kts 312°
2026-05-01 12:45 42.66780 10.28183 30248 ft 399 kts 312°
2026-05-01 12:46 42.70078 10.22111 30253 ft 400 kts 312°
2026-05-01 12:46 42.73365 10.16042 30250 ft 400 kts 311°
2026-05-01 12:47 42.76646 10.09968 30259 ft 401 kts 311°
2026-05-01 12:47 42.79947 10.03849 30258 ft 402 kts 311°
2026-05-01 12:48 42.83237 9.97741 30265 ft 403 kts 311°
2026-05-01 12:48 42.86551 9.91564 30264 ft 403 kts 311°
2026-05-01 12:49 42.89834 9.85433 30266 ft 402 kts 311°
2026-05-01 12:49 42.93120 9.79263 30265 ft 405 kts 310°
2026-05-01 12:50 42.96112 9.72691 30268 ft 410 kts 304°
2026-05-01 12:50 42.98626 9.65700 30071 ft 412 kts 300°
2026-05-01 12:51 42.99822 9.62184 29814 ft 409 kts 300°
2026-05-01 12:51 43.01005 9.58697 29553 ft 408 kts 300°
2026-05-01 12:51 43.03384 9.51684 29032 ft 406 kts 300°
2026-05-01 12:52 43.04562 9.48210 28772 ft 405 kts 300°
2026-05-01 12:52 43.06908 9.41283 28222 ft 403 kts 300°
2026-05-01 12:52 43.08092 9.37781 27869 ft 402 kts 300°
2026-05-01 12:53 43.10415 9.30893 26938 ft 397 kts 299°
2026-05-01 12:53 43.11553 9.27512 26435 ft 395 kts 300°
2026-05-01 12:53 43.12701 9.24097 25918 ft 393 kts 300°
2026-05-01 12:54 43.13827 9.20742 25428 ft 391 kts 300°
2026-05-01 12:54 43.16089 9.13998 24408 ft 388 kts 300°
2026-05-01 12:54 43.17211 9.10645 23895 ft 387 kts 300°
2026-05-01 12:55 43.19432 9.03989 22892 ft 385 kts 300°
2026-05-01 12:55 43.20539 9.00668 22400 ft 383 kts 300°
2026-05-01 12:55 43.21652 8.97326 21901 ft 382 kts 300°
2026-05-01 12:56 43.22745 8.94036 21405 ft 381 kts 300°
2026-05-01 12:56 43.23847 8.90735 20928 ft 379 kts 300°
2026-05-01 12:56 43.24937 8.87466 20451 ft 377 kts 300°
2026-05-01 12:56 43.26023 8.84198 19983 ft 376 kts 300°
2026-05-01 12:57 43.27093 8.80972 19608 ft 370 kts 299°
2026-05-01 12:57 43.29155 8.74728 18802 ft 356 kts 299°
2026-05-01 12:57 43.30172 8.71647 18361 ft 351 kts 299°
2026-05-01 12:58 43.31166 8.68629 17926 ft 345 kts 299°
2026-05-01 12:58 43.32143 8.65659 17513 ft 338 kts 300°
2026-05-01 12:58 43.33098 8.62754 17129 ft 330 kts 299°
2026-05-01 12:59 43.34039 8.56661 16223 ft 334 kts 273°
2026-05-01 12:59 43.33854 8.53459 15849 ft 334 kts 267°
2026-05-01 12:59 43.33282 8.47168 15100 ft 329 kts 266°
2026-05-01 13:00 43.32733 8.41016 14376 ft 324 kts 266°
2026-05-01 13:00 43.32471 8.37978 14057 ft 321 kts 267°
2026-05-01 13:01 43.31951 8.31872 13584 ft 320 kts 266°
2026-05-01 13:01 43.31696 8.28877 13376 ft 319 kts 266°
2026-05-01 13:01 43.31181 8.22859 12974 ft 317 kts 266°
2026-05-01 13:02 43.30922 8.19846 12778 ft 315 kts 266°
2026-05-01 13:07 43.26513 7.60636 7283 ft 289 kts 266°
2026-05-01 13:07 43.26323 7.57919 7271 ft 289 kts 266°
2026-05-01 13:07 43.26130 7.55163 7258 ft 289 kts 266°
2026-05-01 13:08 43.25944 7.52498 7242 ft 275 kts 266°
2026-05-01 13:08 43.25766 7.49961 7256 ft 259 kts 266°
2026-05-01 13:08 43.25594 7.47563 7247 ft 244 kts 266°
2026-05-01 13:08 43.25431 7.45338 7233 ft 228 kts 266°
2026-05-01 13:09 43.25277 7.43238 7229 ft 218 kts 266°
2026-05-01 13:09 43.25126 7.41162 7253 ft 217 kts 266°
2026-05-01 13:09 43.24980 7.39110 7239 ft 213 kts 269°
2026-05-01 13:09 43.25201 7.37178 6960 ft 204 kts 308°
2026-05-01 13:10 43.26203 7.35916 6826 ft 197 kts 333°
2026-05-01 13:10 43.27390 7.34958 6686 ft 196 kts 333°
2026-05-01 13:10 43.28567 7.33990 6516 ft 196 kts 332°
2026-05-01 13:10 43.29713 7.32974 6287 ft 195 kts 330°
2026-05-01 13:11 43.30836 7.31919 6064 ft 195 kts 329°
2026-05-01 13:11 43.31947 7.30838 5828 ft 195 kts 329°
2026-05-01 13:11 43.33048 7.29746 5572 ft 195 kts 328°
2026-05-01 13:11 43.34145 7.28648 5403 ft 194 kts 328°
2026-05-01 13:12 43.35240 7.27547 5381 ft 196 kts 328°
2026-05-01 13:12 43.36335 7.26442 5336 ft 197 kts 328°
2026-05-01 13:12 43.37441 7.25325 5286 ft 197 kts 327°
2026-05-01 13:12 43.38541 7.24207 5229 ft 198 kts 327°
2026-05-01 13:13 43.39655 7.23070 5115 ft 197 kts 328°
2026-05-01 13:13 43.40765 7.21943 4985 ft 204 kts 328°
2026-05-01 13:13 43.41927 7.20765 4849 ft 204 kts 328°
2026-05-01 13:13 43.43046 7.19624 4630 ft 199 kts 328°
2026-05-01 13:14 43.44159 7.18491 4384 ft 197 kts 328°
2026-05-01 13:14 43.45240 7.17387 4120 ft 196 kts 328°
2026-05-01 13:14 43.46374 7.16350 3809 ft 191 kts 346°
2026-05-01 13:14 43.47633 7.16100 3568 ft 182 kts
2026-05-01 13:15 43.48895 7.16045 3362 ft 182 kts
2026-05-01 13:15 43.50168 7.15961 3111 ft 185 kts
2026-05-01 13:15 43.51471 7.15853 2855 ft 186 kts
2026-05-01 13:15 43.52768 7.15735 2606 ft 185 kts
2026-05-01 13:16 43.54044 7.15615 2369 ft 182 kts
2026-05-01 13:16 43.55270 7.15497 2186 ft 174 kts
2026-05-01 13:16 43.56470 7.15379 1910 ft 171 kts
2026-05-01 13:17 43.59895 7.15092 1160 ft 154 kts
2026-05-01 13:17 43.60928 7.15128 998 ft 146 kts 14°
2026-05-01 13:18 43.62484 7.16559 934 ft 134 kts 51°
2026-05-01 13:18 43.63104 7.17477 726 ft 126 kts 50°
2026-05-01 13:18 43.63714 7.18337 493 ft 128 kts 49°
2026-05-01 13:18 43.64335 7.19216 317 ft 127 kts 49°
2026-05-01 13:19 43.64953 7.20093 138 ft 127 kts 48°
2026-05-01 13:19 43.65562 7.20928 30 ft 114 kts 48°
2026-05-01 13:19 43.66227 7.21845 29 ft 39 kts 45°
2026-05-01 13:20 43.66416 7.22018 29 ft 29 kts 21°
2026-05-01 13:20 43.66525 7.22054 29 ft 5 kts 347°
2026-05-01 13:20 43.66544 7.22042 29 ft 0 kts 322°
2026-05-01 13:21 43.66562 7.22018 29 ft 1 kts 313°
2026-05-01 13:21 43.66564 7.21999 29 ft 3 kts 254°
2026-05-01 13:21 43.66549 7.21968 29 ft 4 kts 229°
2026-05-01 13:21 43.66523 7.21932 29 ft 5 kts 224°
2026-05-01 13:22 43.66492 7.21889 29 ft 6 kts 224°
2026-05-01 13:22 43.66456 7.21839 29 ft 7 kts 225°
2026-05-01 13:22 43.66413 7.21780 29 ft 9 kts 225°
2026-05-01 13:22 43.66361 7.21709 29 ft 11 kts 224°
2026-05-01 13:23 43.66301 7.21628 29 ft 12 kts 225°
2026-05-01 13:23 43.66236 7.21536 29 ft 14 kts 225°
2026-05-01 13:23 43.66163 7.21437 29 ft 15 kts 225°
2026-05-01 13:23 43.66085 7.21329 29 ft 16 kts 224°
2026-05-01 13:24 43.66009 7.21225 29 ft 10 kts 226°
2026-05-01 13:24 43.65992 7.21201 29 ft 0 kts 226°
2026-05-01 13:25 43.65981 7.21185 29 ft 3 kts 226°
2026-05-01 13:25 43.65954 7.21148 29 ft 7 kts 225°
2026-05-01 13:25 43.65912 7.21090 29 ft 10 kts 224°
2026-05-01 13:25 43.65858 7.21017 29 ft 11 kts 225°
2026-05-01 13:26 43.65803 7.20937 29 ft 10 kts 239°
2026-05-01 13:26 43.65821 7.20868 29 ft 8 kts 332°
2026-05-01 13:26 43.65870 7.20851 29 ft 6 kts 341°
2026-05-01 13:26 43.65895 7.20801 29 ft 7 kts 292°
2026-05-01 13:27 43.65915 7.20732 29 ft 4 kts 291°
2026-05-01 13:27 43.65922 7.20706 29 ft 2 kts 289°
2026-05-01 13:27 43.65923 7.20703 29 ft 0 kts 290°